Cosmos 2016 Rocket - Orbit

View from above orbital plane
View from above orbital plane
View from above satellite
View from above satellite

Ground track
Ground track

The orbit data is extracted from the following two-line orbital elements,

1 19922U 89028B   13144.18576139  .00000140  00000-0  12525-3 0  8434
2 19922 082.9602 088.2648 0037956 085.5711 036.5494 13.77057408212845
Epoch (UTC): 24 May 2013 04:27:29
Eccentricity: 0.0037956
inclination: 82.9602°
perigee height: 946 km
apogee height: 1002 km
right ascension of ascending node: 88.2648°
argument of perigee: 85.5711°
revolutions per day: 13.77057408
mean anomaly at epoch: 36.5494°
orbit number at epoch: 21284

The dashed part of the orbit path shows where the satellite is in the earth's shadow,  

Developed and maintained by Chris Peat, Heavens-Above GmbH. Please read the updated FAQ before sending e-mail. Imprint. DLR